TimeEDT,TemperatureF,Dew PointF,Humidity,Sea Level PressureIn,VisibilityMPH,Wind Direction,Wind SpeedMPH,Gust SpeedMPH,PrecipitationIn,Events,Conditions,WindDirDegrees,DateUTC
12:14 AM,64.2,64.0,99,30.04,-9999.0,Calm,Calm,-,N/A,,Mostly Cloudy,0,2013-08-29 04:14:00
12:33 AM,64.8,64.6,99,30.04,0.2,Calm,Calm,-,N/A,Fog,Fog,0,2013-08-29 04:33:00
12:53 AM,65.3,64.9,99,30.05,-9999.0,NNW,3.5,-,N/A,,Overcast,330,2013-08-29 04:53:00
1:13 AM,66.6,66.4,99,30.05,0.2,Calm,Calm,-,N/A,Fog,Fog,0,2013-08-29 05:13:00
1:33 AM,66.7,66.6,99,30.05,-9999.0,Calm,Calm,-,N/A,,Overcast,0,2013-08-29 05:33:00
1:53 AM,67.5,67.3,99,30.05,0.2,Calm,Calm,-,N/A,Fog,Fog,0,2013-08-29 05:53:00
2:13 AM,67.3,67.1,99,30.06,0.2,Calm,Calm,-,N/A,Fog,Fog,0,2013-08-29 06:13:00
2:33 AM,66.7,66.6,99,30.05,0.2,Calm,Calm,-,N/A,Fog,Fog,0,2013-08-29 06:33:00
2:53 AM,66.6,66.4,99,30.05,0.2,Calm,Calm,-,N/A,Fog,Fog,0,2013-08-29 06:53:00
3:13 AM,65.8,65.7,99,30.05,0.2,Calm,Calm,-,N/A,Fog,Fog,0,2013-08-29 07:13:00
3:33 AM,64.6,64.4,99,30.05,0.2,Calm,Calm,-,N/A,Fog,Fog,0,2013-08-29 07:33:00
3:52 AM,64.6,64.4,99,30.05,0.2,Calm,Calm,-,N/A,Fog,Fog,0,2013-08-29 07:52:00
4:13 AM,63.1,63.0,99,30.04,0.2,Calm,Calm,-,N/A,Fog,Fog,0,2013-08-29 08:13:00
4:33 AM,63.1,63.0,99,30.04,0.5,Calm,Calm,-,N/A,Fog,Fog,0,2013-08-29 08:33:00
4:53 AM,63.1,63.0,99,30.05,0.2,Calm,Calm,-,N/A,Fog,Fog,0,2013-08-29 08:53:00
5:13 AM,63.1,63.0,99,30.05,0.2,Calm,Calm,-,N/A,Fog,Fog,0,2013-08-29 09:13:00
5:33 AM,62.6,62.6,100,30.05,0.5,Calm,Calm,-,N/A,Fog,Fog,0,2013-08-29 09:33:00
5:53 AM,62.2,62.2,100,30.06,0.2,Calm,Calm,-,N/A,Fog,Fog,0,2013-08-29 09:53:00
6:13 AM,62.4,62.4,100,30.06,0.2,Calm,Calm,-,N/A,Fog,Fog,0,2013-08-29 10:13:00
6:33 AM,62.8,62.8,100,30.07,0.2,Calm,Calm,-,N/A,Fog,Fog,0,2013-08-29 10:33:00
6:53 AM,61.9,61.9,100,30.07,0.5,Calm,Calm,-,N/A,Fog,Fog,0,2013-08-29 10:53:00
7:14 AM,61.7,61.7,100,30.08,0.2,Calm,Calm,-,0.01,Fog,Fog,0,2013-08-29 11:14:00
7:33 AM,61.3,61.3,100,30.08,0.8,Calm,Calm,-,0.01,,Overcast,0,2013-08-29 11:33:00
7:54 AM,63.0,63.0,100,30.08,4.0,Calm,Calm,-,0.01,,Scattered Clouds,0,2013-08-29 11:54:00
8:11 AM,63.7,63.7,100,30.09,7.0,Calm,Calm,-,N/A,,Scattered Clouds,0,2013-08-29 12:11:00
8:33 AM,65.1,65.1,100,30.09,7.0,Calm,Calm,-,N/A,,Clear,0,2013-08-29 12:33:00
8:53 AM,67.1,67.1,100,30.09,10.0,Calm,Calm,-,N/A,,Clear,0,2013-08-29 12:53:00
9:13 AM,68.2,68.0,99,30.09,10.0,Calm,Calm,-,N/A,,Clear,0,2013-08-29 13:13:00
9:33 AM,70.2,70.0,99,30.10,10.0,Calm,Calm,-,N/A,,Clear,0,2013-08-29 13:33:00
9:53 AM,72.0,70.2,94,30.10,10.0,Calm,Calm,-,N/A,,Clear,0,2013-08-29 13:53:00
10:13 AM,74.5,71.1,89,30.10,10.0,Calm,Calm,-,N/A,,Clear,0,2013-08-29 14:13:00
10:34 AM,77.2,69.6,77,30.10,10.0,Calm,Calm,-,N/A,,Clear,0,2013-08-29 14:34:00
10:53 AM,79.0,66.4,65,30.10,10.0,Calm,Calm,-,N/A,,Clear,0,2013-08-29 14:53:00
11:13 AM,79.0,67.3,67,30.10,10.0,Calm,Calm,-,N/A,,Clear,0,2013-08-29 15:13:00
11:34 AM,81.5,66.6,60,30.11,10.0,WSW,3.5,-,N/A,,Clear,240,2013-08-29 15:34:00
11:53 AM,82.4,66.0,57,30.10,10.0,Calm,Calm,-,N/A,,Clear,0,2013-08-29 15:53:00
12:13 PM,81.9,64.0,55,30.09,10.0,SE,3.5,-,N/A,,Clear,140,2013-08-29 16:13:00
12:33 PM,84.2,66.7,56,30.09,10.0,West,3.5,-,N/A,,Clear,260,2013-08-29 16:33:00
12:53 PM,83.5,66.2,56,30.09,10.0,Calm,Calm,-,N/A,,Clear,0,2013-08-29 16:53:00
1:13 PM,82.9,65.5,55,30.08,10.0,Calm,Calm,-,N/A,,Clear,0,2013-08-29 17:13:00
1:33 PM,83.5,65.8,55,30.08,10.0,Calm,Calm,-,N/A,,Clear,0,2013-08-29 17:33:00
1:53 PM,84.2,65.5,53,30.07,10.0,Calm,Calm,-,N/A,,Clear,0,2013-08-29 17:53:00
2:13 PM,84.6,66.0,54,30.07,10.0,Calm,Calm,-,N/A,,Clear,0,2013-08-29 18:13:00
2:33 PM,85.8,66.2,52,30.07,10.0,Calm,Calm,-,N/A,,Scattered Clouds,0,2013-08-29 18:33:00
2:53 PM,85.3,65.8,52,30.07,10.0,SE,3.5,-,N/A,,Scattered Clouds,130,2013-08-29 18:53:00
3:12 PM,86.0,66.0,51,30.06,10.0,Calm,Calm,-,N/A,,Clear,0,2013-08-29 19:12:00
3:33 PM,86.4,66.2,51,30.06,10.0,SSW,3.5,-,N/A,,Scattered Clouds,210,2013-08-29 19:33:00
3:53 PM,87.8,66.2,49,30.05,10.0,Calm,Calm,-,N/A,,Mostly Cloudy,0,2013-08-29 19:53:00
4:14 PM,86.7,67.5,53,30.05,10.0,SW,5.8,-,N/A,,Overcast,230,2013-08-29 20:14:00
4:33 PM,87.8,67.3,50,30.04,10.0,Calm,Calm,-,N/A,,Overcast,0,2013-08-29 20:33:00
4:54 PM,86.0,66.2,51,30.04,10.0,Calm,Calm,-,N/A,,Scattered Clouds,0,2013-08-29 20:54:00
5:13 PM,84.9,66.9,55,30.04,10.0,SE,4.6,-,N/A,,Mostly Cloudy,130,2013-08-29 21:13:00
5:33 PM,85.1,66.2,53,30.03,10.0,SE,3.5,-,N/A,,Scattered Clouds,140,2013-08-29 21:33:00
5:54 PM,86.0,66.7,52,30.03,10.0,SSE,5.8,-,N/A,,Clear,160,2013-08-29 21:54:00
6:13 PM,85.8,65.3,50,30.03,10.0,Calm,Calm,-,N/A,,Clear,0,2013-08-29 22:13:00
6:33 PM,85.1,67.1,55,30.02,10.0,SSW,5.8,-,N/A,,Clear,200,2013-08-29 22:33:00
6:54 PM,84.6,66.4,54,30.02,10.0,SSW,4.6,-,N/A,,Clear,200,2013-08-29 22:54:00
7:13 PM,84.2,67.5,57,30.03,10.0,SSW,3.5,-,N/A,,Clear,210,2013-08-29 23:13:00
7:33 PM,82.6,68.0,61,30.03,10.0,WSW,3.5,-,N/A,,Clear,240,2013-08-29 23:33:00
7:54 PM,76.8,70.2,80,30.03,10.0,Calm,Calm,-,N/A,,Clear,0,2013-08-29 23:54:00
8:13 PM,75.4,70.3,84,30.03,10.0,Calm,Calm,-,N/A,,Clear,0,2013-08-30 00:13:00
8:33 PM,73.4,71.1,92,30.03,10.0,Calm,Calm,-,N/A,,Clear,0,2013-08-30 00:33:00
8:54 PM,72.5,71.1,95,30.03,10.0,Calm,Calm,-,N/A,,Clear,0,2013-08-30 00:54:00
9:13 PM,71.4,70.0,95,30.03,10.0,Calm,Calm,-,N/A,,Clear,0,2013-08-30 01:13:00
9:33 PM,70.9,69.4,95,30.02,10.0,Calm,Calm,-,N/A,,Clear,0,2013-08-30 01:33:00
9:53 PM,70.3,69.8,98,30.02,10.0,Calm,Calm,-,N/A,,Clear,0,2013-08-30 01:53:00
10:13 PM,70.0,69.4,98,30.02,7.0,Calm,Calm,-,N/A,,Clear,0,2013-08-30 02:13:00
10:34 PM,68.7,68.2,98,30.01,5.0,Calm,Calm,-,N/A,,Clear,0,2013-08-30 02:34:00
10:53 PM,68.9,68.7,99,30.01,4.0,Calm,Calm,-,N/A,,Clear,0,2013-08-30 02:53:00
11:13 PM,67.1,66.9,99,30.00,1.5,Calm,Calm,-,N/A,,Mist,0,2013-08-30 03:13:00
11:34 PM,67.8,67.6,99,30.00,4.0,Calm,Calm,-,N/A,,Clear,0,2013-08-30 03:34:00
11:53 PM,66.7,66.6,99,30.00,3.0,Calm,Calm,-,N/A,,Clear,0,2013-08-30 03:53:00